Hourly Weather Kandahar

Today, 8 August, Saturday

Time Temperature Precipitation Wind Pressure Humidity
00:00 +31°C° 0 mm 1 mps 668 mmHg 42%
01:00 +30°C° 0 mm 1 mps 668 mmHg 44%
02:00 +30°C° 0 mm 1 mps 667 mmHg 47%
03:00 +29°C° 0 mm 1 mps 667 mmHg 50%
04:00 +27°C° 0 mm 0 mps 667 mmHg 50%
05:00 +31°C° 0 mm 1 mps 668 mmHg 47%
06:00 +32°C° 0 mm 1 mps 668 mmHg 43%
07:00 +35°C° 0 mm 2 mps 669 mmHg 39%
08:00 +36°C° 0 mm 2 mps 669 mmHg 37%
09:00 +37°C° 0 mm 2 mps 669 mmHg 34%
10:00 +38°C° 0 mm 2 mps 670 mmHg 32%
11:00 +38°C° 0 mm 3 mps 669 mmHg 32%
12:00 +38°C° 0 mm 4 mps 669 mmHg 32%
13:00 +39°C° 0 mm 5 mps 668 mmHg 32%
14:00 +40°C° 0 mm 4 mps 668 mmHg 31%
15:00 +40°C° 0 mm 4 mps 668 mmHg 29%
16:00 +41°C° 0 mm 4 mps 668 mmHg 27%
17:00 +37°C° 0.9 mm 4 mps 668 mmHg 36%
18:00 +34°C° 0.9 mm 4 mps 668 mmHg 44%
19:00 +32°C° 0.9 mm 5 mps 668 mmHg 52%
20:00 +30°C° 0.3 mm 4 mps 668 mmHg 54%
21:00 +30°C° 0.3 mm 3 mps 668 mmHg 57%
22:00 +29°C° 0.3 mm 3 mps 668 mmHg 59%
23:00 +29°C° 0 mm 2 mps 668 mmHg 60%

Tomorrow, 9 August, Sunday

Time Temperature Precipitation Wind Pressure Humidity
00:00 +28°C° 0 mm 1 mps 668 mmHg 61%
01:00 +26°C° 0 mm 0 mps 667 mmHg 63%
02:00 +26°C° 0 mm 0 mps 667 mmHg 63%
03:00 +25°C° 0 mm 0 mps 667 mmHg 64%
04:00 +25°C° 0 mm 0 mps 667 mmHg 65%
05:00 +28°C° 0 mm 1 mps 667 mmHg 60%
06:00 +29°C° 0 mm 1 mps 668 mmHg 56%
07:00 +30°C° 0 mm 2 mps 668 mmHg 52%
08:00 +32°C° 0 mm 2 mps 668 mmHg 46%
09:00 +35°C° 0 mm 3 mps 669 mmHg 39%
10:00 +37°C° 0 mm 3 mps 669 mmHg 32%
11:00 +40°C° 0 mm 4 mps 668 mmHg 26%
12:00 +42°C° 0 mm 5 mps 668 mmHg 20%
13:00 +45°C° 0 mm 5 mps 668 mmHg 14%
14:00 +45°C° 0 mm 6 mps 667 mmHg 14%
15:00 +45°C° 0 mm 7 mps 667 mmHg 13%
16:00 +46°C° 0 mm 8 mps 666 mmHg 12%
17:00 +44°C° 0 mm 7 mps 666 mmHg 13%
18:00 +42°C° 0 mm 6 mps 666 mmHg 14%
19:00 +40°C° 0 mm 6 mps 666 mmHg 15%
20:00 +39°C° 0 mm 6 mps 666 mmHg 14%
21:00 +36°C° 0 mm 5 mps 666 mmHg 13%
22:00 +35°C° 0 mm 5 mps 666 mmHg 12%
23:00 +33°C° 0 mm 4 mps 666 mmHg 13%

Day after tomorrow, 10 August, Monday

Time Temperature Precipitation Wind Pressure Humidity
00:00 +31°C° 0 mm 3 mps 665 mmHg 14%
01:00 +29°C° 0 mm 2 mps 665 mmHg 15%
02:00 +28°C° 0 mm 2 mps 665 mmHg 17%
03:00 +27°C° 0 mm 2 mps 665 mmHg 19%
04:00 +26°C° 0 mm 1 mps 664 mmHg 20%
05:00 +27°C° 0 mm 1 mps 665 mmHg 20%
06:00 +29°C° 0 mm 1 mps 666 mmHg 20%
07:00 +30°C° 0 mm 1 mps 667 mmHg 20%
08:00 +32°C° 0 mm 2 mps 667 mmHg 18%
09:00 +34°C° 0 mm 2 mps 667 mmHg 16%
10:00 +36°C° 0 mm 3 mps 667 mmHg 14%
11:00 +38°C° 0 mm 3 mps 667 mmHg 11%
12:00 +39°C° 0 mm 3 mps 667 mmHg 8%
13:00 +40°C° 0 mm 2 mps 667 mmHg 6%
14:00 +41°C° 0 mm 2 mps 666 mmHg 5%
15:00 +41°C° 0 mm 2 mps 666 mmHg 5%
16:00 +42°C° 0 mm 2 mps 666 mmHg 4%
17:00 +39°C° 0 mm 1 mps 665 mmHg 6%
18:00 +36°C° 0 mm 1 mps 665 mmHg 7%
19:00 +33°C° 0 mm 1 mps 664 mmHg 8%
20:00 +32°C° 0 mm 1 mps 665 mmHg 8%
21:00 +32°C° 0 mm 1 mps 665 mmHg 9%
22:00 +31°C° 0 mm 1 mps 665 mmHg 10%
23:00 +30°C° 0 mm 1 mps 665 mmHg 11%

11 August, Tuesday

Time Temperature Precipitation Wind Pressure Humidity
00:00 +30°C° 0 mm 1 mps 665 mmHg 11%
01:00 +29°C° 0 mm 1 mps 665 mmHg 12%
02:00 +29°C° 0 mm 1 mps 665 mmHg 12%
03:00 +28°C° 0 mm 1 mps 665 mmHg 13%
04:00 +28°C° 0 mm 1 mps 665 mmHg 13%
05:00 +30°C° 0 mm 1 mps 666 mmHg 12%
06:00 +32°C° 0 mm 1 mps 667 mmHg 11%
07:00 +34°C° 0 mm 1 mps 668 mmHg 10%
08:00 +35°C° 0 mm 1 mps 668 mmHg 9%
09:00 +38°C° 0 mm 2 mps 668 mmHg 8%
10:00 +40°C° 0 mm 2 mps 668 mmHg 8%
11:00 +41°C° 0 mm 2 mps 668 mmHg 7%
12:00 +42°C° 0 mm 2 mps 668 mmHg 7%
13:00 +43°C° 0 mm 2 mps 667 mmHg 6%
14:00 +45°C° 0 mm 2 mps 667 mmHg 7%
15:00 +45°C° 0 mm 3 mps 666 mmHg 7%
16:00 +45°C° 0 mm 3 mps 666 mmHg 7%
17:00 +43°C° 0 mm 3 mps 666 mmHg 7%
18:00 +42°C° 0 mm 4 mps 666 mmHg 7%
19:00 +40°C° 0 mm 4 mps 666 mmHg 8%
20:00 +37°C° 0 mm 3 mps 666 mmHg 8%
21:00 +35°C° 0 mm 3 mps 666 mmHg 9%
22:00 +34°C° 0 mm 2 mps 666 mmHg 9%
23:00 +32°C° 0 mm 2 mps 666 mmHg 9%

12 August, Wednesday

Time Temperature Precipitation Wind Pressure Humidity
00:00 +31°C° 0 mm 2 mps 666 mmHg 10%
01:00 +30°C° 0 mm 2 mps 666 mmHg 10%
02:00 +29°C° 0 mm 2 mps 666 mmHg 13%
03:00 +28°C° 0 mm 1 mps 666 mmHg 15%
04:00 +27°C° 0 mm 1 mps 666 mmHg 18%
05:00 +29°C° 0 mm 1 mps 666 mmHg 16%
06:00 +29°C° 0 mm 0 mps 667 mmHg 15%
07:00 +30°C° 0 mm 0 mps 668 mmHg 14%
08:00 +34°C° 0 mm 1 mps 668 mmHg 12%
09:00 +36°C° 0 mm 1 mps 668 mmHg 11%
10:00 +39°C° 0 mm 2 mps 669 mmHg 9%
11:00 +41°C° 0 mm 2 mps 669 mmHg 8%
12:00 +43°C° 0 mm 3 mps 668 mmHg 7%
13:00 +45°C° 0 mm 3 mps 668 mmHg 6%
14:00 +45°C° 0 mm 4 mps 668 mmHg 6%
15:00 +47°C° 0 mm 5 mps 667 mmHg 6%
16:00 +47°C° 0 mm 6 mps 667 mmHg 7%
17:00 +45°C° 0 mm 5 mps 667 mmHg 8%
18:00 +42°C° 0 mm 5 mps 667 mmHg 9%
19:00 +40°C° 0 mm 5 mps 667 mmHg 10%
20:00 +38°C° 0 mm 4 mps 667 mmHg 11%
21:00 +36°C° 0 mm 4 mps 667 mmHg 11%
22:00 +35°C° 0 mm 3 mps 667 mmHg 12%
23:00 +34°C° 0 mm 3 mps 667 mmHg 12%

13 August, Thursday

Time Temperature Precipitation Wind Pressure Humidity
00:00 +32°C° 0 mm 2 mps 667 mmHg 12%
01:00 +30°C° 0 mm 2 mps 666 mmHg 13%
02:00 +30°C° 0 mm 1 mps 666 mmHg 13%
03:00 +29°C° 0 mm 1 mps 666 mmHg 13%
04:00 +28°C° 0 mm 1 mps 666 mmHg 13%
05:00 +30°C° 0 mm 1 mps 667 mmHg 12%
06:00 +31°C° 0 mm 2 mps 668 mmHg 11%
07:00 +34°C° 0 mm 2 mps 668 mmHg 10%
08:00 +36°C° 0 mm 2 mps 668 mmHg 9%
09:00 +36°C° 0 mm 1 mps 669 mmHg 8%
10:00 +39°C° 0 mm 1 mps 669 mmHg 7%
11:00 +41°C° 0 mm 2 mps 669 mmHg 6%
12:00 +44°C° 0 mm 3 mps 668 mmHg 6%
13:00 +47°C° 0 mm 4 mps 668 mmHg 5%
14:00 +47°C° 0 mm 5 mps 668 mmHg 5%
15:00 +47°C° 0 mm 6 mps 667 mmHg 5%
16:00 +49°C° 0 mm 7 mps 667 mmHg 5%
17:00 +45°C° 0 mm 6 mps 667 mmHg 6%
18:00 +42°C° 0 mm 6 mps 666 mmHg 7%
19:00 +40°C° 0 mm 5 mps 666 mmHg 8%
20:00 +37°C° 0 mm 4 mps 666 mmHg 9%
21:00 +36°C° 0 mm 3 mps 667 mmHg 10%
22:00 +35°C° 0 mm 3 mps 667 mmHg 11%
23:00 +32°C° 0 mm 2 mps 666 mmHg 11%
Show more